BEL92K EBBR-LSGG

Flight info

Callsign BEL92K
Flight time 0h 58m
Altitude 34000
Route ROUSY DCT GTQ DCT POGOL DCT LASAT DCT MOROK Z24 AKITO
Aircraft A319/M-SDE3FGHIRWY/LB1

Departure

Time 2026-05-07 19:56
Airport Brussels Airport (EBBR)

Arrival

Time 2026-05-07 20:54
Airport Geneva International Airport (LSGG)
Time Latitude Longitude Altitude Speed Heading
2026-05-07 19:26 50.90279 4.48148 117 ft 0 kts 155°
2026-05-07 19:45 50.90287 4.48142 117 ft 4 kts 154°
2026-05-07 19:45 50.90311 4.48122 116 ft 4 kts 149°
2026-05-07 19:46 50.90333 4.48099 116 ft 4 kts 137°
2026-05-07 19:46 50.90349 4.48067 118 ft 4 kts 98°
2026-05-07 19:46 50.90348 4.48046 120 ft 1 kts 65°
2026-05-07 19:46 50.90347 4.48043 120 ft 0 kts 65°
2026-05-07 19:50 50.90353 4.48042 119 ft 1 kts
2026-05-07 19:50 50.90375 4.48040 120 ft 4 kts 357°
2026-05-07 19:50 50.90405 4.48039 121 ft 6 kts 10°
2026-05-07 19:50 50.90442 4.48099 120 ft 10 kts 63°
2026-05-07 19:51 50.90474 4.48210 120 ft 11 kts 65°
2026-05-07 19:51 50.90505 4.48319 119 ft 11 kts 65°
2026-05-07 19:51 50.90536 4.48425 119 ft 10 kts 65°
2026-05-07 19:51 50.90565 4.48525 119 ft 10 kts 65°
2026-05-07 19:52 50.90595 4.48624 120 ft 10 kts 65°
2026-05-07 19:52 50.90622 4.48719 119 ft 9 kts 66°
2026-05-07 19:52 50.90654 4.48836 118 ft 14 kts 66°
2026-05-07 19:52 50.90697 4.48981 118 ft 14 kts 64°
2026-05-07 19:53 50.90736 4.49116 121 ft 13 kts 65°
2026-05-07 19:53 50.90772 4.49240 120 ft 12 kts 66°
2026-05-07 19:53 50.90803 4.49350 119 ft 10 kts 65°
2026-05-07 19:53 50.90833 4.49449 122 ft 9 kts 65°
2026-05-07 19:54 50.90858 4.49540 121 ft 10 kts 66°
2026-05-07 19:54 50.90899 4.49682 122 ft 15 kts 65°
2026-05-07 19:54 50.90951 4.49823 123 ft 15 kts 46°
2026-05-07 19:54 50.91041 4.49913 119 ft 16 kts 24°
2026-05-07 19:55 50.91136 4.49912 117 ft 14 kts 307°
2026-05-07 19:55 50.91130 4.49856 119 ft 1 kts 249°
2026-05-07 19:55 50.91090 4.49711 118 ft 43 kts 244°
2026-05-07 19:55 50.90875 4.48975 118 ft 102 kts 245°
2026-05-07 19:56 50.90508 4.47704 121 ft 149 kts 245°
2026-05-07 19:56 50.90036 4.46039 357 ft 165 kts 246°
2026-05-07 19:56 50.89582 4.44426 931 ft 161 kts 246°
2026-05-07 19:56 50.89121 4.42800 1408 ft 161 kts 245°
2026-05-07 19:57 50.88631 4.41183 1828 ft 166 kts 236°
2026-05-07 19:57 50.87684 4.40096 1994 ft 183 kts 192°
2026-05-07 19:57 50.86378 4.40331 2150 ft 201 kts 149°
2026-05-07 19:57 50.85419 4.42041 2353 ft 220 kts 118°
2026-05-07 19:58 50.84658 4.44280 2594 ft 244 kts 117°
2026-05-07 19:58 50.83865 4.46724 3195 ft 254 kts 116°
2026-05-07 19:58 50.83045 4.49242 3990 ft 257 kts 118°
2026-05-07 19:58 50.81968 4.51500 4798 ft 261 kts 130°
2026-05-07 19:59 50.80767 4.53686 5595 ft 264 kts 133°
2026-05-07 19:59 50.79363 4.55595 6354 ft 268 kts 142°
2026-05-07 19:59 50.77907 4.57425 7088 ft 271 kts 142°
2026-05-07 19:59 50.76410 4.59292 7802 ft 275 kts 142°
2026-05-07 20:00 50.74907 4.61160 8526 ft 278 kts 142°
2026-05-07 20:00 50.73365 4.63081 9246 ft 282 kts 142°
2026-05-07 20:00 50.71820 4.65010 9943 ft 287 kts 142°
2026-05-07 20:00 50.70233 4.66992 10367 ft 301 kts 142°
2026-05-07 20:01 50.68522 4.69123 10512 ft 323 kts 142°
2026-05-07 20:01 50.66682 4.71409 10643 ft 345 kts 142°
2026-05-07 20:01 50.64781 4.73772 11049 ft 355 kts 142°
2026-05-07 20:01 50.62845 4.76183 11630 ft 359 kts 142°
2026-05-07 20:02 50.60854 4.78663 12248 ft 363 kts 143°
2026-05-07 20:02 50.58881 4.81123 12862 ft 366 kts 143°
2026-05-07 20:02 50.56870 4.83625 13479 ft 370 kts 143°
2026-05-07 20:02 50.54830 4.86154 14065 ft 373 kts 143°
2026-05-07 20:03 50.52795 4.88668 14586 ft 377 kts 143°
2026-05-07 20:03 50.50725 4.91223 15108 ft 380 kts 143°
2026-05-07 20:03 50.48634 4.93804 15636 ft 383 kts 143°
2026-05-07 20:03 50.46513 4.96422 16172 ft 387 kts 143°
2026-05-07 20:04 50.44409 4.99017 16702 ft 390 kts 143°
2026-05-07 20:04 50.42257 5.01665 17221 ft 393 kts 143°
2026-05-07 20:04 50.40092 5.04330 17746 ft 396 kts 143°
2026-05-07 20:04 50.37910 5.07013 18265 ft 400 kts 143°
2026-05-07 20:05 50.35739 5.09677 18715 ft 403 kts 143°
2026-05-07 20:05 50.33517 5.12399 19173 ft 406 kts 143°
2026-05-07 20:05 50.31276 5.15135 19632 ft 408 kts 143°
2026-05-07 20:05 50.29019 5.17887 20059 ft 411 kts 143°
2026-05-07 20:06 50.26776 5.20622 20480 ft 414 kts 143°
2026-05-07 20:06 50.24504 5.23394 20909 ft 416 kts 144°
2026-05-07 20:06 50.22208 5.26190 21340 ft 419 kts 144°
2026-05-07 20:06 50.19898 5.28998 21751 ft 421 kts 144°
2026-05-07 20:07 50.17567 5.31826 22150 ft 424 kts 144°
2026-05-07 20:07 50.15260 5.34620 22545 ft 426 kts 144°
2026-05-07 20:07 50.12892 5.37489 22945 ft 429 kts 144°
2026-05-07 20:07 50.10539 5.40335 23332 ft 431 kts 144°
2026-05-07 20:08 50.08149 5.43220 23702 ft 434 kts 144°
2026-05-07 20:08 50.05736 5.46126 24014 ft 436 kts 144°
2026-05-07 20:08 50.03359 5.48986 24330 ft 438 kts 144°
2026-05-07 20:08 50.00931 5.51907 24642 ft 440 kts 144°
2026-05-07 20:09 49.98499 5.54830 24955 ft 442 kts 144°
2026-05-07 20:09 49.96051 5.57773 25266 ft 444 kts 144°
2026-05-07 20:09 49.93624 5.60681 25571 ft 446 kts 144°
2026-05-07 20:10 49.88677 5.66590 26176 ft 450 kts 144°
2026-05-07 20:10 49.86181 5.69568 26474 ft 452 kts 144°
2026-05-07 20:10 49.83695 5.72531 26766 ft 454 kts 144°
2026-05-07 20:10 49.81172 5.75536 27044 ft 456 kts 144°
2026-05-07 20:11 49.78645 5.78540 27328 ft 458 kts 144°
2026-05-07 20:11 49.76142 5.81511 27605 ft 459 kts 144°
2026-05-07 20:11 49.73595 5.84532 27879 ft 461 kts 144°
2026-05-07 20:11 49.71041 5.87560 28153 ft 463 kts 144°
2026-05-07 20:12 49.68472 5.90603 28392 ft 465 kts 144°
2026-05-07 20:12 49.65894 5.93649 28643 ft 467 kts 144°
2026-05-07 20:12 49.63332 5.96665 28902 ft 469 kts 144°
2026-05-07 20:12 49.60729 5.99726 29260 ft 468 kts 144°
2026-05-07 20:13 49.58145 6.02767 29635 ft 467 kts 144°
2026-05-07 20:13 49.55567 6.05800 30013 ft 466 kts 144°
2026-05-07 20:13 49.52989 6.08827 30339 ft 465 kts 144°
2026-05-07 20:13 49.50431 6.11825 30641 ft 464 kts 144°
2026-05-07 20:14 49.47856 6.14837 30934 ft 464 kts 144°
2026-05-07 20:14 49.45275 6.17850 31234 ft 463 kts 144°
2026-05-07 20:14 49.42710 6.20842 31530 ft 462 kts 145°
2026-05-07 20:14 49.40157 6.23815 31835 ft 462 kts 145°
2026-05-07 20:15 49.37590 6.26801 32112 ft 461 kts 145°
2026-05-07 20:15 49.35034 6.29770 32378 ft 461 kts 145°
2026-05-07 20:15 49.32500 6.32711 32660 ft 461 kts 145°
2026-05-07 20:15 49.29936 6.35684 32949 ft 460 kts 145°
2026-05-07 20:16 49.27366 6.38662 33060 ft 460 kts 145°
2026-05-07 20:16 49.22277 6.44538 33070 ft 459 kts 145°
2026-05-07 20:17 49.17174 6.50405 33076 ft 459 kts 145°
2026-05-07 20:17 49.12066 6.56270 33073 ft 459 kts 145°
2026-05-07 20:18 49.06955 6.62135 33068 ft 459 kts 146°
2026-05-07 20:18 49.01697 6.67735 33072 ft 457 kts 155°
2026-05-07 20:19 48.95758 6.70887 33070 ft 450 kts 173°
2026-05-07 20:19 48.89562 6.71250 33071 ft 446 kts 185°
2026-05-07 20:20 48.83381 6.71004 33074 ft 445 kts 184°
2026-05-07 20:20 48.77182 6.70781 33074 ft 445 kts 184°
2026-05-07 20:21 48.70981 6.70547 33070 ft 445 kts 185°
2026-05-07 20:21 48.64799 6.70300 33070 ft 445 kts 185°
2026-05-07 20:22 48.59639 6.70092 33067 ft 445 kts 185°
2026-05-07 20:22 48.53450 6.69850 33068 ft 445 kts 185°
2026-05-07 20:23 48.47259 6.69614 33067 ft 445 kts 184°
2026-05-07 20:23 48.41081 6.69378 33068 ft 444 kts 185°
2026-05-07 20:24 48.34858 6.69136 33068 ft 448 kts 185°
2026-05-07 20:24 48.28634 6.68905 33070 ft 448 kts 185°
2026-05-07 20:25 48.22404 6.68668 33068 ft 448 kts 185°
2026-05-07 20:25 48.16182 6.68423 33076 ft 448 kts 185°
2026-05-07 20:26 48.09953 6.68185 33072 ft 447 kts 185°
2026-05-07 20:26 48.03715 6.67945 33074 ft 447 kts 185°
2026-05-07 20:27 47.97505 6.67711 33069 ft 447 kts 185°
2026-05-07 20:27 47.91258 6.67477 33069 ft 447 kts 185°
2026-05-07 20:28 47.85065 6.67253 32931 ft 446 kts 185°
2026-05-07 20:28 47.81965 6.67139 32264 ft 445 kts 185°
2026-05-07 20:28 47.78847 6.67019 31886 ft 448 kts 185°
2026-05-07 20:28 47.75755 6.66899 31530 ft 449 kts 185°
2026-05-07 20:29 47.72614 6.66779 31172 ft 449 kts 185°
2026-05-07 20:29 47.69484 6.66660 30821 ft 449 kts 185°
2026-05-07 20:29 47.66391 6.66544 30475 ft 449 kts 185°
2026-05-07 20:29 47.63246 6.66426 30126 ft 450 kts 185°
2026-05-07 20:30 47.60093 6.66309 29699 ft 451 kts 185°
2026-05-07 20:30 47.56977 6.66194 29304 ft 451 kts 185°
2026-05-07 20:30 47.53825 6.66077 28907 ft 449 kts 185°
2026-05-07 20:30 47.50730 6.65963 28517 ft 447 kts 185°
2026-05-07 20:31 47.47636 6.65847 28133 ft 445 kts 185°
2026-05-07 20:31 47.44520 6.65732 27754 ft 443 kts 185°
2026-05-07 20:31 47.41477 6.65622 27382 ft 441 kts 185°
2026-05-07 20:31 47.38401 6.65511 27008 ft 438 kts 185°
2026-05-07 20:32 47.35393 6.65399 26648 ft 436 kts 185°
2026-05-07 20:32 47.32364 6.65284 26289 ft 434 kts 185°
2026-05-07 20:32 47.29332 6.65170 25934 ft 432 kts 184°
2026-05-07 20:32 47.26375 6.64928 25585 ft 427 kts 190°
2026-05-07 20:33 47.23471 6.64060 25238 ft 422 kts 199°
2026-05-07 20:33 47.20732 6.62549 24897 ft 417 kts 208°
2026-05-07 20:33 47.18243 6.60469 24551 ft 413 kts 217°
2026-05-07 20:33 47.15992 6.57855 24217 ft 409 kts 224°
2026-05-07 20:34 47.13869 6.55044 23889 ft 408 kts 224°
2026-05-07 20:34 47.11772 6.52291 23556 ft 407 kts 223°
2026-05-07 20:34 47.09642 6.49510 23164 ft 405 kts 223°
2026-05-07 20:34 47.07548 6.46785 23018 ft 403 kts 223°
2026-05-07 20:35 47.05445 6.44045 23051 ft 404 kts 223°
2026-05-07 20:35 47.03354 6.41325 23045 ft 404 kts 223°
2026-05-07 20:35 47.01236 6.38571 23051 ft 404 kts 223°
2026-05-07 20:35 46.99150 6.35861 23045 ft 404 kts 223°
2026-05-07 20:36 46.97028 6.33105 23053 ft 404 kts 223°
2026-05-07 20:36 46.94937 6.30386 23051 ft 404 kts 223°
2026-05-07 20:36 46.92827 6.27646 23051 ft 404 kts 223°
2026-05-07 20:36 46.90737 6.24936 23050 ft 404 kts 223°
2026-05-07 20:37 46.88654 6.22229 23041 ft 404 kts 223°
2026-05-07 20:37 46.86536 6.19468 23046 ft 404 kts 223°
2026-05-07 20:37 46.84452 6.16746 23046 ft 404 kts 223°
2026-05-07 20:37 46.82348 6.13997 23045 ft 404 kts 223°
2026-05-07 20:38 46.80256 6.11270 23039 ft 404 kts 223°
2026-05-07 20:38 46.78180 6.08569 23041 ft 403 kts 223°
2026-05-07 20:38 46.76070 6.05832 23040 ft 403 kts 223°
2026-05-07 20:38 46.73981 6.03135 23040 ft 403 kts 223°
2026-05-07 20:39 46.71879 6.00428 23040 ft 403 kts 223°
2026-05-07 20:39 46.69798 5.97745 22375 ft 403 kts 223°
2026-05-07 20:39 46.67679 5.95005 21698 ft 404 kts 223°
2026-05-07 20:39 46.65602 5.92324 21501 ft 392 kts 223°
2026-05-07 20:40 46.63589 5.89736 21367 ft 380 kts 223°
2026-05-07 20:40 46.61648 5.87250 21234 ft 369 kts 223°
2026-05-07 20:40 46.59582 5.85113 21104 ft 360 kts 207°
2026-05-07 20:40 46.57212 5.84151 20972 ft 353 kts 186°
2026-05-07 20:41 46.54780 5.84455 20827 ft 348 kts 166°
2026-05-07 20:41 46.52616 5.85899 20513 ft 348 kts 148°
2026-05-07 20:41 46.50606 5.87906 20099 ft 347 kts 147°
2026-05-07 20:41 46.48646 5.89890 19659 ft 344 kts 147°
2026-05-07 20:42 46.46687 5.91879 19053 ft 342 kts 147°
2026-05-07 20:42 46.44759 5.93833 18484 ft 339 kts 147°
2026-05-07 20:42 46.43441 5.95163 18073 ft 337 kts 147°
2026-05-07 20:42 46.41510 5.97101 17455 ft 334 kts 147°
2026-05-07 20:43 46.39620 5.98988 16901 ft 330 kts 147°
2026-05-07 20:43 46.37732 6.00861 16336 ft 326 kts 149°
2026-05-07 20:43 46.35706 6.02145 15768 ft 317 kts 171°
2026-05-07 20:43 46.33533 6.02254 15161 ft 310 kts 193°
2026-05-07 20:44 46.31529 6.01212 14571 ft 304 kts 213°
2026-05-07 20:44 46.29918 5.99247 14105 ft 304 kts 226°
2026-05-07 20:44 46.28439 5.97078 13771 ft 303 kts 226°
2026-05-07 20:44 46.26960 5.94923 13406 ft 301 kts 225°
2026-05-07 20:45 46.25483 5.92772 13062 ft 298 kts 225°
2026-05-07 20:45 46.24046 5.90679 12651 ft 295 kts 225°
2026-05-07 20:45 46.22593 5.88568 12213 ft 292 kts 225°
2026-05-07 20:45 46.21160 5.86489 11785 ft 289 kts 225°
2026-05-07 20:46 46.19761 5.84456 11386 ft 286 kts 225°
2026-05-07 20:46 46.18369 5.82435 10956 ft 284 kts 225°
2026-05-07 20:46 46.16977 5.80416 10527 ft 281 kts 225°
2026-05-07 20:46 46.15620 5.78450 10131 ft 278 kts 225°
2026-05-07 20:47 46.14269 5.76492 9876 ft 268 kts 225°
2026-05-07 20:47 46.12980 5.74629 9738 ft 254 kts 224°
2026-05-07 20:47 46.11582 5.73171 9428 ft 246 kts 204°
2026-05-07 20:47 46.09945 5.72674 9077 ft 241 kts 180°
2026-05-07 20:48 46.08319 5.73180 8679 ft 241 kts 157°
2026-05-07 20:48 46.06977 5.74606 8212 ft 245 kts 132°
2026-05-07 20:48 46.06152 5.76750 7745 ft 248 kts 107°
2026-05-07 20:48 46.05999 5.79231 7305 ft 249 kts 89°
2026-05-07 20:49 46.06053 5.81701 6869 ft 248 kts 90°
2026-05-07 20:49 46.06205 5.84179 6373 ft 251 kts 75°
2026-05-07 20:49 46.07023 5.86381 5835 ft 253 kts 48°
2026-05-07 20:49 46.08250 5.88179 5460 ft 246 kts 46°
2026-05-07 20:50 46.09427 5.89890 5157 ft 240 kts 46°
2026-05-07 20:50 46.10600 5.91598 4841 ft 237 kts 46°
2026-05-07 20:50 46.11742 5.93261 4523 ft 233 kts 46°
2026-05-07 20:50 46.12869 5.94902 4208 ft 225 kts 46°
2026-05-07 20:51 46.13942 5.96468 3915 ft 217 kts 46°
2026-05-07 20:51 46.14983 5.97985 3619 ft 206 kts 45°
2026-05-07 20:51 46.15948 5.99395 3394 ft 189 kts 45°
2026-05-07 20:51 46.16833 6.00688 3132 ft 174 kts 45°
2026-05-07 20:52 46.17638 6.01865 2908 ft 157 kts 45°
2026-05-07 20:52 46.18377 6.02945 2694 ft 146 kts 45°
2026-05-07 20:52 46.19075 6.03966 2508 ft 143 kts 45°
2026-05-07 20:52 46.19780 6.04997 2308 ft 143 kts 45°
2026-05-07 20:53 46.20475 6.06015 2132 ft 144 kts 45°
2026-05-07 20:53 46.21189 6.07060 1918 ft 145 kts 45°
2026-05-07 20:53 46.21887 6.08092 1745 ft 145 kts 46°
2026-05-07 20:53 46.22605 6.09128 1521 ft 145 kts 46°
2026-05-07 20:54 46.23272 6.10122 1404 ft 126 kts 47°
2026-05-07 20:54 46.23795 6.10877 1382 ft 88 kts 45°
2026-05-07 20:54 46.24142 6.11389 1374 ft 49 kts 45°
2026-05-07 20:54 46.24306 6.11708 1371 ft 30 kts 66°
2026-05-07 20:55 46.24340 6.11868 1366 ft 13 kts 77°
2026-05-07 20:55 46.24288 6.11926 1362 ft 13 kts 202°
2026-05-07 20:55 46.24223 6.11840 1362 ft 12 kts 225°
2026-05-07 20:55 46.24170 6.11762 1364 ft 10 kts 226°
2026-05-07 20:56 46.24121 6.11692 1366 ft 12 kts 225°
2026-05-07 20:56 46.24062 6.11604 1369 ft 11 kts 226°
2026-05-07 20:56 46.24013 6.11531 1371 ft 10 kts 225°
2026-05-07 20:56 46.23977 6.11479 1373 ft 0 kts 225°
2026-05-07 20:57 46.23975 6.11477 1373 ft 2 kts 225°
2026-05-07 20:57 46.23941 6.11428 1374 ft 8 kts 225°
2026-05-07 20:57 46.23904 6.11392 1374 ft 5 kts 181°
2026-05-07 20:57 46.23879 6.11395 1375 ft 2 kts 174°
2026-05-07 20:58 46.23846 6.11400 1377 ft 7 kts 174°
2026-05-07 20:58 46.23838 6.11401 1376 ft 0 kts 174°